User: anonymous   Login
Location: Unspecified
(0.0000°N, 0.0000°E)
Time: 19:56:31
(UTC+00:00)
Language:

STPSAT 1 - Orbit

View from above orbital plane
View from above orbital plane
View from above satellite
View from above satellite

Ground track
Ground track

The orbit data is extracted from the following two-line orbital elements,

1 30775U 07006D   18016.88882035 +.00001125 +00000-0 +45026-4 0  9993
2 30775 035.4270 230.6964 0002551 086.5410 273.5605 15.25741446600207
Epoch (UTC): 16 January 2018 21:19:54
Eccentricity: 0.0002551
inclination: 35.4270°
perigee height: 487 km
apogee height: 490 km
right ascension of ascending node: 230.6964°
argument of perigee: 86.5410°
revolutions per day: 15.25741446
mean anomaly at epoch: 273.5605°
orbit number at epoch: 60020

The dashed part of the orbit path shows where the satellite is in the earth's shadow,  

DLR